Sigonella, Italy

10:00 AM CET on February 23, 2018 (GMT +0100)
Sigonella Mil

Weather History for LICZ - October, 2012

Change the Weather History Date:

Wednesday, October 31, 2012

  Actual Average Record
Temperature  
Mean Temperature 58 °F -  
Max Temperature 67 °F 69 °F 79 °F (2013)
Min Temperature 50 °F 49 °F 48 °F (2006)
Degree Days  
Heating Degree Days 6    
Growing Degree Days 8 (Base 50)    
Moisture  
Dew Point 59 °F    
Average Humidity 99    
Maximum Humidity 100    
Minimum Humidity 94    
Precipitation  
Precipitation 0.43 in 0.06 in - ()
Sea Level Pressure  
Sea Level Pressure 29.73 in    
Wind  
Wind Speed 4 mph ()    
Max Wind Speed 12 mph    
Max Gust Speed -    
Visibility 4.4 miles    
Events Rain    
Averages and records for this station are not official NWS values.
T = Trace of Precipitation, MM = Missing Value Source: Averaged Metar Reports

Daily Weather History Graph

Daily Weather History Graph

Search for Another Location

Airport or City:

Trip Planner

Search our weather history database for the weather conditions in past years. The results will help you decide how hot, cold, wet, or windy it might be!

Date:

Astronomy

Oct. 31, 2012 Rise Set
Actual Time 6:24 AM CET 5:03 PM CET
Civil Twilight 5:57 AM CET 5:30 PM CET
Nautical Twilight 5:26 AM CET 6:00 PM CET
Astronomical Twilight 4:55 AM CET 6:31 PM CET
Moon 6:04 PM CET (10/31) 7:47 AM CET (10/31)
Length of Visible Light 11h 32m
Length of Day
10h 38m
Full, 98% of the Moon is Illuminated
Oct 31
Full
Nov 7
Last Quarter
Nov 13
New
Nov 20
First Quarter
Nov 28
Full

Hourly Weather History & Observations

Time (CET) Temp. Dew Point Humidity Pressure Visibility Wind Dir Wind Speed Gust Speed Precip Events Conditions
12:55 AM 50.0 °F 50.0 °F 100% 29.89 in 6.2 mi WNW 1.2 mph - N/A   Mostly Cloudy
1:00 AM 51 °F 51 °F 99% 29.89 in 6 mi WNW 1.2 mph - -   Mostly Cloudy
1:55 AM 53.6 °F 53.6 °F 100% 29.86 in - North - - N/A   Mostly Cloudy
2:55 AM 53.6 °F 53.6 °F 100% 29.83 in - North - - N/A   Mostly Cloudy
3:55 AM 53.6 °F 53.6 °F 100% 29.83 in - North - - N/A   Mostly Cloudy
4:00 AM 53 °F 53 °F 99% 29.85 in 6 mi SW 2.3 mph - -   Mostly Cloudy
4:55 AM 53.6 °F 53.6 °F 100% 29.83 in - North - - N/A   Mostly Cloudy
5:55 AM 53.6 °F 53.6 °F 100% 29.80 in - North - - N/A   Mostly Cloudy
6:55 AM 55.4 °F 55.4 °F 100% 29.80 in - North - - N/A   Mostly Cloudy
7:00 AM 55 °F 55 °F 98% 29.82 in 6 mi West 4.6 mph - -   Overcast
7:55 AM 55.4 °F 55.4 °F 100% 29.80 in - North - - N/A Rain Light Rain
8:55 AM 55.4 °F 55.4 °F 100% 29.80 in 1.2 mi West 4.6 mph - N/A Rain Light Rain
9:55 AM 55.4 °F 55.4 °F 100% 29.80 in 2.2 mi SE 2.3 mph - N/A Rain Light Rain
10:00 AM 56 °F 56 °F 98% 29.81 in 2 mi SE 2.3 mph - - Rain Light Rain
10:55 AM 59.0 °F 59.0 °F 100% 29.77 in 2.5 mi East 6.9 mph - N/A Rain Light Rain
11:55 AM 62.6 °F 62.6 °F 100% 29.74 in 3.7 mi East 9.2 mph - N/A   Mostly Cloudy
12:55 PM 62.6 °F 62.6 °F 100% 29.71 in 3.7 mi ENE 11.5 mph - N/A   Mostly Cloudy
1:00 PM 63 °F 63 °F 99% 29.72 in 2 mi ENE 11.5 mph - -   Mist
1:55 PM 64.4 °F 64.4 °F 100% 29.65 in 5.0 mi ENE 9.2 mph - N/A   Mostly Cloudy
2:55 PM 64.4 °F 64.4 °F 100% 29.68 in 5.0 mi ENE 6.9 mph - N/A   Mostly Cloudy
3:55 PM 66.2 °F 66.2 °F 100% 29.65 in 5.0 mi NNE 4.6 mph - N/A   Mostly Cloudy
4:00 PM 66 °F 66 °F 98% 29.66 in 3 mi NNE 4.6 mph - -   Mist
4:55 PM 64.4 °F 64.4 °F 100% 29.65 in 5.0 mi North 4.6 mph - N/A   Mostly Cloudy
5:55 PM 64.4 °F 64.4 °F 100% 29.65 in 5.0 mi SSW 2.3 mph - N/A Rain Light Rain
6:55 PM 64.4 °F 64.4 °F 100% 29.62 in 3.7 mi North 4.6 mph - N/A   Mostly Cloudy
7:00 PM 64 °F 64 °F 98% 29.64 in 4 mi North 4.6 mph - -   Mist
7:55 PM 64.4 °F 62.6 °F 94% 29.59 in 3.7 mi ENE 4.6 mph - N/A   Mostly Cloudy
8:55 PM 62.6 °F 62.6 °F 100% 29.59 in 6.2 mi SSE 1.2 mph - N/A   Mostly Cloudy
9:55 PM 60.8 °F 60.8 °F 100% 29.59 in 6.2 mi NNW 2.3 mph - N/A   Mostly Cloudy
10:00 PM 61 °F 61 °F 98% 29.60 in 4 mi NNW 2.3 mph - -   Mist
10:55 PM 62.6 °F 60.8 °F 94% 29.56 in 6.2 mi ENE 1.2 mph - N/A   Overcast
11:55 PM 62.6 °F 62.6 °F 100% 29.53 in 6.2 mi SE 5.8 mph - N/A   Mostly Cloudy